This is the latest recevied weather packets stored in our database for station/object 7M1JBF-11. If no packets are shown the sender has not sent any weather packets the latest 10 day(s).
| Time | Temp. | Humidity | Pressure | Rain* | Wind** | Luminosity | Snow |
|---|---|---|---|---|---|---|---|
| 1777941432 | 29.44° C | 100% | 1019.3 hPa | 0 mm | - | - | - |
| 1777940831 | 28.89° C | 100% | 1019.2 hPa | 0 mm | - | - | - |
| 1777939628 | 28.89° C | 100% | 1019.2 hPa | 0 mm | - | - | - |
| 1777939027 | 28.89° C | 100% | 1019 hPa | 0 mm | - | - | - |
| 1777937824 | 28.33° C | 100% | 1019.1 hPa | 0 mm | - | - | - |
| 1777937223 | 27.78° C | 100% | 1019 hPa | 0 mm | - | - | - |
| 1777936621 | 27.22° C | 100% | 1019 hPa | 0 mm | - | - | - |
| 1777936020 | 26.67° C | 100% | 1019.1 hPa | 0 mm | - | - | - |
| 1777935419 | 26.11° C | 100% | 1019 hPa | 0 mm | - | - | - |
| 1777934212 | 25° C | 100% | 1018.5 hPa | 0 mm | - | - | - |
| 1777933611 | 24.44° C | 100% | 1018.4 hPa | 0 mm | - | - | - |
| 1777933008 | 23.89° C | 100% | 1018.3 hPa | 0 mm | - | - | - |
| 1777932408 | 23.33° C | 100% | 1018.3 hPa | 0 mm | - | - | - |
| 1777930001 | 20° C | 100% | 1018 hPa | 0 mm | - | - | - |
| 1777929401 | 18.89° C | 100% | 1017.8 hPa | 0 mm | - | - | - |
| 1777928800 | 17.78° C | 100% | 1017.6 hPa | 0 mm | - | - | - |
| 1777928197 | 16.67° C | 100% | 1017.2 hPa | 0 mm | - | - | - |
| 1777927596 | 15.56° C | 100% | 1017 hPa | 0 mm | - | - | - |
| 1777926995 | 15° C | 100% | 1017 hPa | 0 mm | - | - | - |
| 1777926394 | 14.44° C | 100% | 1016.7 hPa | 0 mm | - | - | - |
| 1777925792 | 13.89° C | 100% | 1016.3 hPa | 0 mm | - | - | - |
| 1777925190 | 13.89° C | 100% | 1016 hPa | 0 mm | - | - | - |
| 1777924591 | 13.89° C | 100% | 1015.7 hPa | 0 mm | - | - | - |
| 1777923988 | 13.89° C | 100% | 1015.4 hPa | 0 mm | - | - | - |
| 1777923386 | 13.89° C | 100% | 1015.1 hPa | 0 mm | - | - | - |
* Rain since midnight (hover to see other rain measurements)
** Current wind speed in m/s (hover to see current wind gust speed)